TimeCDT,TemperatureF,Dew PointF,Humidity,Sea Level PressureIn,VisibilityMPH,Wind Direction,Wind SpeedMPH,Gust SpeedMPH,PrecipitationIn,Events,Conditions,WindDirDegrees,DateUTC
12:15 AM,35.4,32.0,87,29.79,10.0,NW,8.1,21.9,N/A,,Overcast,320,2013-10-21 05:15:00
12:35 AM,35.4,31.6,86,29.79,10.0,NW,11.5,17.3,N/A,,Overcast,310,2013-10-21 05:35:00
12:55 AM,35.1,31.8,88,29.79,10.0,NW,10.4,20.7,N/A,,Overcast,310,2013-10-21 05:55:00
1:15 AM,35.1,31.3,86,29.79,10.0,NW,15.0,21.9,N/A,,Overcast,310,2013-10-21 06:15:00
1:35 AM,34.9,30.2,83,29.80,10.0,WNW,12.7,20.7,N/A,,Overcast,300,2013-10-21 06:35:00
1:55 AM,34.7,29.5,81,29.80,10.0,NW,11.5,25.3,N/A,,Overcast,310,2013-10-21 06:55:00
2:15 AM,34.2,28.8,81,29.81,10.0,NW,10.4,-,N/A,,Overcast,320,2013-10-21 07:15:00
2:35 AM,33.8,28.4,81,29.81,10.0,NW,11.5,21.9,N/A,,Overcast,310,2013-10-21 07:35:00
2:55 AM,33.3,27.5,79,29.82,10.0,NW,12.7,18.4,N/A,,Overcast,310,2013-10-21 07:55:00
3:15 AM,32.4,27.5,82,29.83,10.0,WNW,8.1,-,N/A,,Overcast,290,2013-10-21 08:15:00
3:35 AM,32.2,27.1,82,29.83,10.0,West,6.9,-,N/A,,Overcast,270,2013-10-21 08:35:00
3:55 AM,32.0,26.4,80,29.84,10.0,West,9.2,16.1,N/A,,Overcast,280,2013-10-21 08:55:00
4:15 AM,31.6,26.4,81,29.84,10.0,West,8.1,-,N/A,,Scattered Clouds,280,2013-10-21 09:15:00
4:35 AM,32.0,27.0,82,29.84,10.0,West,4.6,-,N/A,,Mostly Cloudy,260,2013-10-21 09:35:00
4:55 AM,32.0,27.7,84,29.84,10.0,West,6.9,-,N/A,,Overcast,260,2013-10-21 09:55:00
5:15 AM,31.8,27.9,85,29.84,10.0,West,6.9,-,N/A,,Overcast,260,2013-10-21 10:15:00
5:35 AM,32.0,28.0,85,29.84,10.0,West,6.9,-,N/A,,Overcast,270,2013-10-21 10:35:00
5:55 AM,32.0,28.0,85,29.84,10.0,West,6.9,-,N/A,,Overcast,280,2013-10-21 10:55:00
6:15 AM,32.0,27.5,83,29.84,10.0,West,6.9,-,N/A,,Overcast,270,2013-10-21 11:15:00
6:35 AM,32.0,26.8,81,29.84,10.0,West,11.5,-,N/A,,Overcast,280,2013-10-21 11:35:00
6:55 AM,31.8,26.1,79,29.84,10.0,West,11.5,-,N/A,,Overcast,270,2013-10-21 11:55:00
7:15 AM,32.0,26.1,79,29.83,10.0,West,9.2,-,N/A,,Overcast,280,2013-10-21 12:15:00
7:35 AM,31.6,25.7,79,29.84,10.0,WNW,11.5,-,N/A,,Mostly Cloudy,290,2013-10-21 12:35:00
7:55 AM,30.9,24.8,78,29.84,10.0,West,11.5,16.1,N/A,,Scattered Clouds,280,2013-10-21 12:55:00
8:15 AM,31.8,25.5,78,29.84,10.0,West,13.8,-,N/A,,Mostly Cloudy,280,2013-10-21 13:15:00
8:35 AM,32.0,25.7,78,29.84,10.0,West,10.4,-,N/A,,Overcast,270,2013-10-21 13:35:00
8:55 AM,32.0,25.3,76,29.84,10.0,West,9.2,-,N/A,,Mostly Cloudy,260,2013-10-21 13:55:00
9:15 AM,32.9,24.6,72,29.84,10.0,West,12.7,18.4,N/A,,Clear,260,2013-10-21 14:15:00
9:35 AM,32.7,24.4,72,29.84,10.0,West,12.7,16.1,N/A,,Mostly Cloudy,280,2013-10-21 14:35:00
9:55 AM,32.9,23.2,67,29.84,10.0,West,12.7,18.4,N/A,,Mostly Cloudy,280,2013-10-21 14:55:00
10:15 AM,33.1,23.4,67,29.84,10.0,West,16.1,-,N/A,,Overcast,270,2013-10-21 15:15:00
10:35 AM,34.3,24.1,66,29.84,10.0,WNW,16.1,20.7,N/A,,Overcast,290,2013-10-21 15:35:00
10:55 AM,34.0,23.5,66,29.84,10.0,WNW,20.7,26.5,N/A,,Overcast,290,2013-10-21 15:55:00
11:15 AM,34.0,23.5,66,29.84,10.0,West,16.1,21.9,N/A,,Overcast,280,2013-10-21 16:15:00
11:35 AM,33.8,23.2,65,29.83,10.0,West,18.4,23.0,N/A,,Overcast,280,2013-10-21 16:35:00
11:55 AM,33.8,23.0,65,29.83,10.0,West,12.7,24.2,N/A,,Overcast,280,2013-10-21 16:55:00
12:15 PM,34.9,24.1,65,29.83,10.0,West,17.3,20.7,N/A,,Overcast,280,2013-10-21 17:15:00
12:35 PM,35.6,24.3,63,29.83,10.0,West,15.0,-,N/A,,Overcast,270,2013-10-21 17:35:00
12:55 PM,34.7,23.9,65,29.82,10.0,West,13.8,18.4,N/A,,Overcast,260,2013-10-21 17:55:00
1:15 PM,34.3,25.3,70,29.82,10.0,West,12.7,20.7,N/A,,Overcast,270,2013-10-21 18:15:00
1:35 PM,34.9,24.4,66,29.81,10.0,West,13.8,23.0,N/A,,Overcast,280,2013-10-21 18:35:00
1:55 PM,35.6,24.4,64,29.81,10.0,West,18.4,24.2,N/A,,Overcast,280,2013-10-21 18:55:00
2:15 PM,35.2,25.9,69,29.81,10.0,West,16.1,25.3,N/A,,Overcast,280,2013-10-21 19:15:00
2:35 PM,36.0,25.7,66,29.81,10.0,West,12.7,21.9,N/A,,Overcast,270,2013-10-21 19:35:00
2:55 PM,34.9,26.4,71,29.81,10.0,West,15.0,23.0,N/A,Snow,Light Snow,270,2013-10-21 19:55:00
3:15 PM,37.6,28.0,68,29.81,10.0,West,12.7,20.7,N/A,,Overcast,270,2013-10-21 20:15:00
3:35 PM,35.4,27.0,71,29.81,10.0,WNW,18.4,25.3,N/A,,Overcast,290,2013-10-21 20:35:00
3:55 PM,36.1,27.5,71,29.80,10.0,West,15.0,23.0,N/A,,Overcast,270,2013-10-21 20:55:00
4:15 PM,36.5,27.5,70,29.80,10.0,West,12.7,19.6,N/A,,Overcast,280,2013-10-21 21:15:00
4:35 PM,35.8,27.5,72,29.81,10.0,West,16.1,23.0,N/A,,Overcast,280,2013-10-21 21:35:00
4:55 PM,35.1,28.2,76,29.81,10.0,West,18.4,24.2,N/A,,Overcast,270,2013-10-21 21:55:00
5:15 PM,34.7,28.4,78,29.81,10.0,West,13.8,-,N/A,,Overcast,270,2013-10-21 22:15:00
5:35 PM,34.9,28.9,79,29.81,10.0,West,15.0,-,N/A,,Overcast,270,2013-10-21 22:35:00
5:55 PM,34.9,29.3,80,29.82,7.0,West,15.0,26.5,N/A,,Overcast,270,2013-10-21 22:55:00
6:15 PM,35.1,29.8,81,29.82,10.0,West,15.0,-,N/A,,Overcast,270,2013-10-21 23:15:00
6:35 PM,35.2,29.8,81,29.83,10.0,West,12.7,-,N/A,,Overcast,280,2013-10-21 23:35:00
6:55 PM,35.6,29.8,80,29.83,10.0,West,15.0,21.9,N/A,,Overcast,270,2013-10-21 23:55:00
7:15 PM,36.0,30.0,79,29.83,10.0,West,12.7,-,N/A,,Overcast,280,2013-10-22 00:15:00
7:35 PM,36.0,30.2,80,29.83,10.0,West,13.8,-,N/A,,Overcast,280,2013-10-22 00:35:00
7:55 PM,36.0,30.2,80,29.84,10.0,West,16.1,19.6,N/A,,Overcast,280,2013-10-22 00:55:00
8:15 PM,36.5,30.4,78,29.84,10.0,WNW,15.0,26.5,N/A,,Overcast,290,2013-10-22 01:15:00
8:35 PM,36.0,30.6,81,29.84,10.0,WNW,12.7,-,N/A,,Overcast,290,2013-10-22 01:35:00
8:55 PM,36.1,30.7,81,29.85,10.0,WNW,12.7,18.4,N/A,,Overcast,300,2013-10-22 01:55:00
9:15 PM,35.8,31.1,83,29.86,10.0,WNW,12.7,19.6,N/A,,Overcast,300,2013-10-22 02:15:00
9:35 PM,35.4,31.1,84,29.86,10.0,WNW,10.4,19.6,N/A,,Mostly Cloudy,300,2013-10-22 02:35:00
9:55 PM,36.3,31.3,82,29.87,10.0,WNW,12.7,18.4,N/A,,Overcast,300,2013-10-22 02:55:00
10:15 PM,35.8,31.1,83,29.87,10.0,WNW,13.8,18.4,N/A,,Mostly Cloudy,300,2013-10-22 03:15:00
10:35 PM,35.6,31.1,84,29.87,10.0,NW,13.8,18.4,N/A,,Mostly Cloudy,310,2013-10-22 03:35:00
10:55 PM,35.2,31.1,85,29.87,10.0,WNW,10.4,-,N/A,,Mostly Cloudy,300,2013-10-22 03:55:00
11:15 PM,34.9,31.1,86,29.87,10.0,NW,11.5,-,N/A,,Mostly Cloudy,310,2013-10-22 04:15:00
11:35 PM,35.1,31.1,85,29.87,10.0,WNW,8.1,-,N/A,,Scattered Clouds,300,2013-10-22 04:35:00
11:55 PM,35.4,31.3,85,29.88,10.0,NW,9.2,-,N/A,,Mostly Cloudy,310,2013-10-22 04:55:00